Location: Kings Park
(40.8862°N, 73.2573°W)
Time: 05:22:06
(UTC+00:00)

Cosmos 1346 Rocket - Pass Details

Date: 29 October 2020
Orbit: 535 x 543 km, 81.2° (Epoch: 29 November)

Event Time Altitude Azimuth Distance (km) Brightness Sun altitude
Rises 22:16:55 0° 8° (N) 2,713 6.1 -5.4°
Reaches altitude 10° 22:19:45 10° 29° (NNE) 1,816 5.1 -5.9°
Maximum altitude 22:22:22 17° 70° (ENE) 1,436 4.3 -6.4°
Drops below altitude 10° 22:24:58 10° 111° (ESE) 1,807 5.0 -6.8°
Sets 22:27:46 0° 133° (SE) 2,694 6.0 -7.4°
